Temp
18 17 17 17 17 17 17 16 16 15 15 14 14 14 14 13 13 13 13 13 13 13 12 12 11 10 10 10 10 9 9 10 9 9 8 8 7 7 7 8 7 7 7
17 17 17 16 16 16 16 15 15 15 14 14 13 13 13 12 12 12 12 12 13 12 12 11 11 10 10 9 9 9 9 9 9 9 8 8 7 7 7 7 7 7 7
17 17 16 16 15 15 15 14 14 14 14 13 13 12 12 11 11 11 11 11 12 11 10 10 10 10 10 9 9 9 9 8 8 8 7 7 7 7 7 6 6 6 6
16 16 15 15 14 14 14 14 13 13 12 12 12 11 11 10 10 10 10 10 10 10 9 9 9 9 9 9 9 9 9 8 8 8 7 7 7 6 6 6 6 6 6
15 15 15 15 14 14 14 13 12 12 11 11 10 10 10 10 9 9 9 9 10 9 8 8 8 8 8 8 8 8 8 8 8 8 7 7 6 6 6 5 5 5 5
14 15 14 14 14 13 13 12 12 11 10 10 10 10 10 9 9 9 8 8 8 9 9 9 8 8 7 7 7 7 8 8 8 7 7 6 6 6 5 5 5 5 5
14 15 14 14 13 13 12 12 11 10 10 10 9 9 9 8 8 8 8 8 8 8 8 7 7 7 7 6 6 6 6 7 7 7 6 6 6 5 5 5 5 5 5
14 14 14 13 12 12 11 11 10 10 9 9 9 7 4 7 8 8 7 7 7 7 7 7 6 6 6 6 5 5 5 5 5 5 5 5 5 5 5 5 5 5 5
14 13 12 12 12 11 11 10 10 9 9 9 8 8 4 3 4 7 7 7 6 6 7 6 6 5 5 5 4 4 4 4 4 4 4 4 4 4 4 5 5 5 5
13 12 12 11 11 10 10 9 8 8 8 8 7 7 7 6 3 2 6 6 6 6 6 6 5 5 4 4 4 3 3 3 3 3 3 4 4 4 4 4 4 4 4
12 12 11 10 10 10 9 9 8 8 8 7 7 6 6 6 5 3 1 4 5 5 5 5 5 4 4 3 3 3 3 3 2 2 2 2 3 3 3 3 3 3 3
11 10 10 9 8 8 8 8 7 7 7 7 6 6 5 5 4 3 1 1 2 4 4 4 4 3 3 2 3 2 2 2 1 0 0 1 1 1 2 2 2 2 2
10 9 9 9 8 8 7 7 6 6 6 6 5 5 5 5 4 4 3 2 1 2 3 3 3 2 2 2 1 1 0 0 0 -0 -1 -1 -0 0 0 1 1 1 2
10 9 9 8 8 7 7 7 6 6 6 6 5 5 5 5 4 4 3 1 1 0 1 2 2 1 1 0 -0 -0 -0 -1 -1 -1 -2 -1 -1 -1 -1 -0 0 1 1
9 9 8 8 8 7 7 6 6 6 6 5 5 5 4 4 4 3 2 1 0 -0 -2 0 1 0 -0 -1 -2 -2 -3 -3 -3 -3 -3 -2 -2 -2 -1 -1 -1 -0 0
9 8 8 8 8 7 7 6 6 6 5 5 5 4 4 4 3 2 2 1 -0 -1 -3 -1 -1 -1 -2 -2 -3 -4 -4 -4 -4 -3 -3 -3 -3 -2 -2 -2 -2 -1 -1
9 9 9 9 7 7 6 6 6 5 5 5 4 4 3 3 2 2 1 0 -0 -1 -2 -1 -2 -2 -3 -3 -4 -4 -4 -4 -4 -4 -4 -4 -4 -4 -3 -3 -3 -2 -2
9 9 9 8 7 7 6 6 6 5 5 4 4 3 3 2 2 1 1 1 -0 -1 -2 -3 -3 -3 -3 -4 -4 -5 -4 -4 -5 -4 -5 -4 -4 -4 -4 -4 -3 -3 -2
9 8 8 8 7 7 7 6 6 5 5 4 3 3 2 2 1 1 0 -0 -1 -2 -3 -4 -5 -4 -5 -5 -5 -5 -5 -5 -5 -5 -5 -5 -5 -5 -5 -4 -4 -4 -3
8 8 8 7 7 7 6 6 5 5 4 3 3 2 2 1 1 1 -0 -1 -2 -2 -3 -4 -5 -6 -6 -6 -6 -6 -6 -6 -6 -6 -5 -5 -5 -5 -5 -5 -5 -4 -3
7 7 6 6 6 6 5 5 5 4 4 3 2 2 1 1 0 -0 -1 -1 -2 -3 -4 -5 -6 -7 -7 -7 -7 -7 -7 -7 -7 -6 -5 -5 -5 -5 -4 -4 -4 -3 -3
5 5 4 5 5 5 5 5 5 4 3 2 2 1 1 0 -0 -1 -1 -2 -3 -4 -5 -6 -6 -7 -7 -7 -7 -8 -8 -8 -7 -6 -6 -6 -6 -5 -4 -4 -3 -3 -4
3 3 3 4 4 5 5 5 4 3 3 2 2 1 0 -0 -1 -2 -2 -3 -4 -4 -5 -6 -7 -7 -7 -7 -7 -8 -7 -7 -7 -6 -6 -6 -5 -5 -4 -4 -4 -3 -4
2 3 3 3 4 4 4 4 3 2 2 2 1 0 -0 -1 -2 -2 -3 -3 -4 -4 -5 -6 -7 -7 -7 -7 -7 -7 -7 -7 -7 -7 -6 -6 -5 -5 -4 -4 -4 -3 -4
3 3 3 3 3 3 3 3 3 2 2 1 0 -0 -1 -1 -2 -2 -3 -4 -5 -5 -5 -6 -6 -6 -6 -7 -7 -7 -7 -7 -7 -7 -6 -6 -5 -5 -5 -4 -3 -3 -4
3 2 2 2 2 1 2 2 2 2 1 0 -0 -1 -1 -1 -2 -3 -4 -4 -5 -5 -5 -6 -6 -6 -6 -6 -7 -7 -7 -8 -8 -7 -5 -6 -6 -6 -5 -4 -3 -3 -4
Height
851 853 854 855 857 857 860 861 861 861 862 862 861 860 860 858 856 856 855 856 855 854 855 855 855 855 855 854 854 855 855 854 854 854 852 851 849 847 846 844 843 842 841
852 853 852 856 856 857 861 863 861 861 862 863 862 861 860 857 857 856 855 854 853 853 853 855 855 856 856 856 856 856 856 856 855 854 852 851 849 848 847 845 843 841 840
852 851 852 855 857 859 863 862 860 862 864 863 861 862 859 857 857 855 854 852 851 851 852 854 854 856 857 857 857 857 856 856 855 854 852 851 849 848 847 846 844 841 839
851 851 853 856 857 860 862 861 860 862 863 861 861 860 858 857 856 856 854 853 851 852 852 853 854 855 857 857 856 857 856 854 854 854 852 850 848 847 846 845 843 842 839
851 851 853 854 858 859 860 859 861 861 860 861 860 859 857 857 857 856 855 854 854 854 855 855 855 856 856 856 855 855 854 854 853 852 851 850 847 846 845 843 842 840 838
849 850 852 856 858 858 858 860 859 859 858 857 857 857 857 857 857 857 857 857 857 856 856 855 855 855 855 855 854 853 851 850 850 849 849 849 847 845 843 842 840 838 837
847 849 853 857 858 856 857 857 857 857 854 855 853 855 856 856 857 857 856 855 855 855 855 854 854 853 853 852 851 851 850 849 847 847 846 846 845 843 841 839 838 836 834
847 851 854 857 855 854 855 854 853 854 854 855 856 857 859 858 856 856 856 855 855 854 853 853 853 852 851 851 849 848 847 846 845 843 843 843 842 841 839 837 835 833 830
849 852 855 855 854 853 853 852 854 855 855 856 857 859 860 860 857 855 855 854 854 853 852 852 852 851 850 849 848 846 845 845 843 842 840 839 838 836 835 833 831 829 825
850 852 853 852 852 853 854 855 856 857 856 855 856 857 858 857 858 857 855 854 853 852 850 849 849 848 848 847 846 844 842 840 839 838 836 836 834 833 830 829 827 824 820
847 849 851 853 854 853 853 855 857 858 857 856 856 856 857 856 855 855 853 850 850 850 848 847 847 846 845 842 841 840 838 836 834 834 832 831 830 829 826 823 823 818 814
846 848 849 850 853 854 856 857 856 856 856 856 856 856 856 855 853 852 851 849 847 846 845 843 842 842 841 840 838 836 835 832 831 830 829 828 824 823 820 818 815 812 808
844 847 847 850 850 852 855 855 857 856 853 853 853 853 852 851 850 848 847 845 843 841 841 842 841 839 838 837 835 834 831 829 827 825 824 821 819 816 813 810 807 804 801
842 843 846 846 851 852 852 853 853 852 850 850 849 849 848 847 846 844 844 844 841 840 838 837 838 835 836 834 832 830 827 824 822 818 816 813 810 808 806 803 800 797 794
840 842 843 847 850 850 850 850 849 847 846 847 847 846 844 843 842 841 841 840 840 839 840 836 835 833 832 830 827 825 820 817 815 812 808 806 804 802 800 797 794 791 789
835 838 841 842 844 846 845 846 846 844 843 842 841 840 839 838 838 838 837 837 837 838 838 834 831 829 827 825 822 819 815 812 809 806 803 801 798 796 793 791 788 785 783
831 834 835 837 840 841 842 842 842 841 840 839 838 837 837 835 836 836 835 835 834 835 833 828 827 824 822 820 817 814 810 806 803 800 797 795 793 790 787 784 782 779 777
828 831 833 836 837 838 838 837 837 836 835 834 835 834 833 833 833 832 832 832 831 831 830 825 822 820 818 815 812 808 805 801 798 795 792 789 786 783 780 777 775 772 770
824 827 830 832 834 835 835 834 833 832 830 830 830 830 829 830 829 829 829 828 827 827 826 824 820 817 814 811 808 804 799 795 792 789 785 782 779 775 772 770 768 766 763
823 825 828 830 831 830 829 829 828 827 826 827 826 826 825 825 825 825 825 824 823 823 822 821 817 814 811 808 805 800 793 792 786 783 779 777 774 770 766 762 760 758 756
823 825 827 829 827 826 825 824 824 822 821 822 822 822 822 822 822 821 820 820 820 819 819 817 814 811 807 804 801 797 793 787 782 779 775 772 768 763 759 756 753 751 749
822 825 827 824 822 820 820 819 819 818 818 818 818 818 818 817 817 817 816 816 816 815 815 813 810 808 804 802 797 794 790 786 780 776 773 766 763 757 754 750 747 745 742
821 821 821 821 820 818 817 815 814 814 814 814 813 813 813 813 813 813 813 813 812 812 811 809 806 804 801 798 794 790 787 783 779 774 772 763 758 753 749 745 743 740 736
816 816 817 817 815 814 813 811 810 809 809 809 809 809 809 809 809 809 809 809 808 808 807 804 802 800 798 794 791 788 784 779 774 770 770 762 754 749 744 740 738 736 733
813 813 813 812 811 810 808 806 805 804 803 803 803 803 804 803 804 804 804 804 804 803 801 800 799 797 794 791 788 784 780 777 770 765 763 759 751 745 739 734 733 732 729
811 809 809 808 806 804 803 801 800 800 799 799 799 798 798 798 799 799 799 799 799 798 797 796 795 792 790 787 785 782 778 775 771 763 759 757 748 746 737 732 730 729 725
Wind_Speed
13 15 13 11 11 9 8 8 8 8 7 7 7 10 11 11 10 8 7 5 3 2 2 3 3 3 5 7 8 9 9 9 11 11 10 13 15 18 19 21 22 23 23
15 14 12 11 10 9 8 7 7 6 6 6 8 10 10 10 10 10 10 10 6 2 2 2 2 2 3 4 6 7 7 7 10 10 8 10 14 17 19 21 24 23 23
13 13 12 10 10 9 8 6 6 4 4 6 9 9 11 10 7 10 10 10 6 0 3 5 3 3 2 2 3 4 4 6 9 6 8 10 12 15 18 20 21 22 23
12 13 14 12 10 9 5 4 4 4 7 9 8 9 9 6 7 9 10 12 11 4 7 5 5 5 2 1 2 3 5 6 9 9 8 9 11 14 16 18 19 20 22
11 14 13 11 10 6 3 2 3 5 6 6 6 6 5 8 6 7 10 11 10 7 4 5 4 1 3 2 3 6 8 10 12 8 11 13 12 13 15 17 18 20 21
17 15 13 10 7 5 2 1 5 5 7 10 7 5 7 4 3 5 8 9 7 4 1 2 2 1 2 4 7 9 10 11 12 11 12 14 15 15 15 17 19 20 22
16 12 11 8 7 3 2 3 4 8 11 10 7 8 6 4 3 4 6 5 3 2 0 1 2 1 3 2 4 7 9 11 11 13 13 14 16 16 17 18 21 22 24
14 11 8 8 4 1 2 6 9 9 8 6 4 4 3 3 7 4 7 7 8 2 3 5 3 1 3 5 6 7 8 9 10 12 14 15 16 16 19 22 24 25 27
12 9 8 3 1 3 6 9 8 7 5 5 4 3 0 3 3 10 5 8 5 4 9 6 3 4 6 7 8 9 11 13 12 11 13 15 18 20 23 25 28 29 29
11 7 4 3 5 6 9 11 9 7 6 7 5 8 9 4 2 3 6 10 9 10 9 10 10 9 8 8 9 10 12 14 16 15 15 18 20 22 24 26 28 30 30
11 9 6 5 7 8 9 9 10 8 7 5 5 3 6 9 10 8 3 6 11 12 16 14 13 11 10 12 14 14 16 20 13 11 13 16 20 23 26 27 29 32 33
13 10 8 7 8 11 10 9 7 4 4 5 7 7 7 6 5 6 3 7 9 13 16 16 13 10 10 11 11 14 15 16 14 13 14 18 21 25 28 32 34 34 34
14 11 8 4 10 7 6 7 8 7 7 8 7 8 9 11 12 14 14 10 7 8 10 13 13 9 10 10 11 10 13 15 18 20 21 22 24 28 32 33 30 28 29
15 12 3 11 4 4 5 7 7 7 8 9 10 10 10 13 15 15 11 4 5 6 10 10 7 5 8 16 18 21 25 25 28 27 24 24 24 23 24 25 26 26 26
13 4 3 3 3 4 5 8 8 8 6 6 8 12 12 14 15 14 11 11 5 2 2 4 4 9 19 23 24 22 22 24 21 21 21 20 20 21 23 24 25 26 27
15 10 9 5 5 6 7 8 8 6 8 11 11 12 12 13 11 12 11 10 10 8 2 6 12 17 21 21 23 19 19 19 19 16 16 18 20 20 22 24 24 23 24
18 14 10 12 10 9 8 7 8 10 12 13 11 11 11 9 9 10 9 9 11 10 11 15 17 20 22 24 22 21 21 20 17 18 20 20 21 23 23 24 24 23 23
17 13 13 11 10 10 9 11 10 11 12 12 10 8 9 10 11 10 10 10 13 11 11 14 21 23 25 26 22 22 22 20 20 21 21 24 27 27 26 25 20 21 21
19 17 13 11 11 12 15 14 14 13 13 13 13 11 9 10 11 12 13 12 12 11 12 14 19 23 27 24 23 22 22 23 25 23 26 23 20 20 21 23 23 23 23
18 14 9 10 12 17 18 17 15 15 12 13 14 13 12 13 13 11 12 13 12 12 13 15 21 21 20 22 19 17 23 22 27 28 22 19 20 25 24 24 23 23 22
10 6 5 11 17 20 19 17 17 15 14 14 13 12 12 12 12 12 13 12 12 12 13 16 19 17 16 17 15 20 21 25 26 18 19 26 28 28 25 21 19 21 22
7 2 10 14 16 13 14 17 18 18 16 15 14 13 13 12 12 12 12 11 10 11 14 16 18 14 16 17 21 20 21 16 8 14 19 30 27 29 26 22 19 20 23
3 6 11 15 14 14 14 17 20 19 17 17 17 15 14 13 13 12 12 12 12 12 14 17 18 16 16 18 21 21 20 20 19 24 22 25 27 30 29 23 22 17 21
7 8 13 15 15 15 15 16 19 20 20 19 18 16 14 14 14 14 15 15 14 15 17 13 12 13 15 18 19 20 22 21 22 22 16 15 26 29 30 26 21 12 16
7 12 13 12 15 17 16 15 17 21 22 22 19 17 16 15 15 14 15 15 15 17 12 9 10 12 13 15 17 19 20 16 18 21 22 15 19 27 26 23 10 14 17
14 12 13 17 17 17 16 19 20 23 25 23 21 20 18 17 14 14 16 15 16 16 11 11 12 14 15 17 18 15 17 15 15 13 7 16 22 15 7 11 11 17 16
Wind_Direction
163 161 142 144 146 141 146 144 133 116 97 78 51 33 25 22 16 11 13 3 344 313 290 218 161 115 78 67 54 43 38 39 39 34 47 37 30 24 15 358 360 360 357
162 161 154 153 151 150 148 139 114 93 76 48 29 20 23 13 4 355 347 340 345 359 280 194 159 108 82 76 63 44 45 46 24 16 38 27 22 16 8 4 353 350 350
183 176 164 161 153 144 146 129 93 67 18 11 7 8 5 2 31 32 27 23 360 248 167 142 124 148 131 114 39 24 33 28 13 21 30 17 11 2 358 354 353 347 342
185 163 154 153 145 145 143 112 80 39 14 6 4 4 2 52 47 47 40 45 49 111 142 142 110 120 115 339 34 342 338 352 348 334 340 348 351 349 346 344 342 341 339
180 166 159 149 155 157 146 80 41 10 22 19 16 25 35 11 58 58 43 43 48 87 125 81 108 9 302 292 301 314 315 316 320 321 327 327 332 334 334 334 334 333 334
169 165 156 159 165 168 145 12 357 24 21 12 14 12 351 353 95 58 37 35 51 56 104 288 313 320 253 325 307 309 306 305 307 303 308 312 318 321 322 321 321 324 325
164 170 167 165 172 193 355 2 19 6 9 1 17 358 322 205 123 49 4 9 26 80 26 323 338 231 264 288 307 327 311 309 306 298 300 307 307 307 311 313 314 314 315
171 172 175 187 183 358 62 24 10 5 5 13 21 12 3 261 284 273 324 337 296 213 316 328 328 194 234 299 314 311 305 307 299 292 293 297 301 303 306 308 307 308 309
168 181 188 185 50 33 18 10 356 349 341 313 278 238 348 238 322 282 229 291 213 258 290 289 273 287 302 319 320 318 316 314 309 294 289 291 295 298 300 303 303 302 302
177 184 181 105 69 35 12 4 350 332 314 285 261 233 252 269 181 314 272 239 253 261 263 277 282 288 296 313 317 310 313 308 302 283 288 291 292 295 298 299 299 298 298
169 158 132 88 42 19 8 349 341 334 323 293 251 267 272 277 266 255 263 260 255 257 271 265 272 284 291 308 313 310 311 313 303 282 285 288 292 295 296 297 297 296 294
153 138 115 78 56 19 358 350 335 315 306 307 300 278 273 267 264 254 243 263 253 275 262 248 264 279 303 303 301 299 300 298 285 295 299 295 294 293 294 294 294 292 288
152 141 127 68 346 331 334 336 320 304 303 289 277 271 269 266 268 269 258 253 258 277 262 262 258 302 304 315 310 306 298 297 294 297 299 296 293 293 292 292 291 290 287
155 140 17 341 304 320 325 309 295 300 297 270 261 266 274 278 273 272 259 259 282 277 277 250 252 260 306 316 309 302 300 299 296 298 298 298 297 293 291 290 289 288 286
152 217 290 204 271 277 291 283 285 294 283 267 290 295 285 288 283 276 260 280 246 297 277 232 238 266 312 317 314 312 304 302 303 300 301 300 299 295 291 291 288 287 285
201 193 187 214 230 249 270 276 292 297 287 292 296 286 285 284 277 262 283 274 258 241 260 249 286 299 314 318 322 315 315 313 304 306 305 303 302 297 294 291 288 286 285
188 191 216 229 218 243 264 288 295 289 287 287 288 277 280 271 259 266 264 255 250 239 248 288 299 314 316 322 324 317 318 316 313 313 307 303 300 299 296 297 286 283 286
198 226 217 214 237 253 274 275 280 281 278 258 265 263 282 269 256 257 259 247 250 252 267 284 305 315 315 319 320 319 321 320 316 316 311 303 299 295 291 292 288 287 287
209 208 209 230 249 267 276 267 271 280 268 251 253 261 271 256 253 259 258 256 264 269 272 284 296 307 310 317 321 322 325 322 320 315 312 309 307 308 297 288 285 288 289
209 201 222 242 268 272 262 255 263 275 252 247 249 259 248 250 256 259 261 268 269 272 279 287 297 300 304 314 315 319 317 315 312 320 322 319 309 305 300 296 280 280 285
185 211 241 269 279 274 267 254 265 256 243 241 240 239 244 247 261 267 262 263 265 270 282 293 294 292 298 309 313 315 307 314 317 325 320 322 320 319 316 311 295 286 285
102 47 284 293 293 284 271 265 253 248 239 240 238 242 247 256 270 277 269 261 261 272 288 290 290 283 294 305 315 318 311 307 313 321 313 308 316 316 319 314 310 305 294
280 279 292 292 295 293 285 265 252 245 241 243 240 243 245 259 265 262 256 254 263 279 288 289 283 294 301 318 318 310 301 292 287 302 311 300 311 310 321 314 314 314 313
296 305 294 297 294 297 291 276 258 242 244 244 244 245 248 259 262 255 251 257 272 287 297 287 285 298 310 318 313 306 306 308 304 306 309 286 305 304 319 310 311 318 323
288 278 288 297 302 296 289 283 261 243 245 244 244 243 250 258 268 258 251 260 277 293 294 282 290 303 314 318 322 314 315 314 309 308 313 281 303 304 309 308 302 323 319
279 275 287 297 300 299 292 273 262 251 247 248 245 244 248 256 262 257 250 258 273 293 283 288 300 309 315 320 325 318 316 304 306 311 316 317 305 301 299 296 302 312 317